Location: Newark
(29.4733°N, 82.6067°W)
Time: 17:42:54
(UTC+00:00)

Nauka - Pass Details

Date: 18 September 2021
Orbit: 418 x 423 km, 51.6° (Epoch: 18 October)

Event Time Altitude Azimuth Distance (km) Brightness Sun altitude
Rises 00:02:10 0° 236° (SW) 2,345 ? -7.2°
Reaches altitude 10° 00:04:19 10° 243° (WSW) 1,486 ? -7.7°
Maximum altitude 00:07:30 43° 316° (NW) 598 ? -8.4°
Drops below altitude 10° 00:10:44 10° 30° (NNE) 1,495 ? -9.1°
Enters shadow 00:13:23 -2° 38° (NE) 2,561 ? -9.6°
